Voltar ao catálogo

COSMOS 2251 DEB

AtivoLEO
NORAD 36528·DEBRIS·🇷🇺 Russia

Lançado Jun 16, 1993 de Plesetsk Cosmodrome

Loading…

Próximas Passagens (próximas 24 horas)

TLE

AtualizadoSource: Space-Track

Época: Sep 14, 2026, 13:39 UTC

1 36528U 93036BCN 26257.56919869  .00000866  00000-0  32258-3 0  9993
2 36528  74.0197   2.1631 0084741 345.2117  14.6555 14.31516753683733

Acompanhe COSMOS 2251 DEB em tempo real com AllMySat

Download on the App Store